Current weather by "City, St" or "zip code"  
 

Current Conditions: Harrisonville Lawrence Smith Memorial Airport, MO

Fair


57.0 F

Last Updated on Oct 21 2021, 12:55 pm CDT
Humidity: 55%
Wind Speed: N 4.6 mph
Barometer 30.22 in
Dewpoint: 41.0 F
Visibility: 10.00 mi
Precip: --
Heat Index: NA
Wind Chill: 57 F
Current conditions at:

Harrisonville Lawrence Smith Memorial Airport, MO (KLRY)

Lat: 38.611 Lon: 94.3421

Local Radar Image active severe weather and emergency alerts image image weather storm and storm spotter reports image weather observation monitoring service image
Local
Radar
Active
Alerts
Storm Reports Obs
Monitoring

Sign-up For Email & Text Message Weather Alert Notification Services



Advertise Here

Observation History for Harrisonville Lawrence Smith Memorial Airport, MO


Time Wind
(mph)
Vis
(mi)
Weather Precip (in) Temperature (F) Relative
Humidity
Wind
Chill
(F)
Heat
Index
(F)
Pressure
Air Dwpt altimeter
(in)
sea level
(mb)
Rmks
12:55 pm CDT N 4.6 10.00 Fair -- 57.0 41.0 55% 57 NA 30.22 M
11:55 am CDT NW 8.1 10.00 Fair -- 55.0 41.0 59% 53 NA 30.22 M
10:55 am CDT NW 6.9 10.00 Fair -- 52.0 39.2 62% 50 NA 30.21 M
9:55 am CDT NW 12.7 10.00 Fair -- 50.0 39.2 67% 45 NA 30.21 M
8:55 am CDT W 9.2 10.00 Fair -- 46.0 39.2 76% 41 NA 30.20 M
7:55 am CDT W 4.6 10.00 Fair -- 43.0 37.4 81% 40 NA 30.17 M
6:55 am CDT W 5.8 10.00 Fair -- 43.0 37.4 81% 39 NA 30.16 M
5:55 am CDT W 4.6 10.00 Fair -- 45.0 37.4 76% 43 NA 30.15 M
4:55 am CDT W 4.6 10.00 Fair -- 45.0 39.2 81% 43 NA 30.13 M
3:55 am CDT W 4.6 10.00 Fair -- 46.0 41.0 82% 44 NA 30.13 M
2:55 am CDT W 4.6 10.00 Fair -- 46.0 41.0 82% 44 NA 30.12 M
1:55 am CDT W 5.8 10.00 Fair -- 46.0 41.0 82% 43 NA 30.12 M
12:55 am CDT W 3.5 10.00 Fair -- 50.0 42.8 76% NA NA 30.11 M
11:55 pm CDT W 3.5 10.00 Fair -- 52.0 42.8 72% NA NA 30.11 M
10:55 pm CDT NW 4.6 10.00 Fair -- 52.0 42.8 72% 51 NA 30.11 M
9:55 pm CDT NW 3.5 10.00 Fair -- 55.0 42.8 63% NA NA 30.09 M
8:55 pm CDT W 3.5 10.00 Fair -- 57.0 44.6 63% NA NA 30.08 M
7:55 pm CDT N 0.0 10.00 Fair -- 59.0 46.4 63% NA NA 30.06 M
6:55 pm CDT W 5.8 10.00 Fair -- 63.0 46.4 56% 63 NA 30.04 M
5:55 pm CDT W 5.8 10.00 Fair -- 68.0 46.4 46% NA NA 30.02 M
4:55 pm CDT W 5.8 10.00 Fair -- 72.0 50.0 47% NA NA 30.02 M
3:55 pm CDT W 10.4 10.00 Fair -- 72.0 50.0 47% NA NA 30.02 M
2:55 pm CDT W 6.9 10.00 Mostly Cloudy -- 72.0 53.6 53% NA NA 30.01 M
1:55 pm CDT SW 10.4 10.00 Mostly Cloudy -- 72.0 55.4 57% NA NA 30.02 M

Regional Weather Observation


Olathe, Johnson County Executive Airport, KS (KOJC)

Fair
54.0 F

Olathe, New Century Aircenter, KS (KIXD)

Fair
55.0 F

Harrisonville Lawrence Smith Memorial Airport, MO (KLRY)

Fair
57.0 F

Kansas City, Kansas City Downtown Airport, MO (KMKC)

Fair
55.0 F

Kansas City, Kansas City International Airport, MO (KMCI)

Partly Cloudy
55.0 F

Mosby Midwest National Air Center Airport, MO (KGPH)

Fair
54.0 F

Advertise Here


Advertise Here